Regional Weather Roundup
Issued by NWS

Home | Current Version | Previous Version | Graphics & Text | Print | Product List | Glossary On
Versions: 1 2 3 4 5 6 7 8 9 10 11 12 13 14 15 16 17 18 19 20 21 22 23 24 25 26 27 28 29 30 31 32 33 34 35 36 37 38 39 40 41 42 43 44 45 46 47 48 49 50
000
ASUS43 KLSX 271007
RWRMO

WEATHER SUMMARY FOR MISSOURI
NATIONAL WEATHER SERVICE SPRINGFIELD MO
400 AM CST SAT DEC 27 2014

NOTE: "FAIR" INDICATES FEW OR NO CLOUDS BELOW 12,000 FEET WITH NO
       SIGNIFICANT WEATHER AND/OR OBSTRUCTIONS TO VISIBILITY.
       CURRENT SKY AND/OR WEATHER CONDITIONS ARE NOT AVAILABLE FOR
       CHILLICOTHE AND FARMINGTON.

MOZ001>031-035>038-043-044-053-054-271100-
...NORTHERN AND WESTERN MISSOURI...

CITY           SKY/WX    TMP DP  RH WIND       PRES   REMARKS
KANSAS CTY INT CLOUDY    34  30  85 W10       30.11R WCI  26
KANSAS C DTWN  CLOUDY    37  30  75 W8        30.12R
LEE`S SUMMIT   CLOUDY    35  30  82 W9        30.10R WCI  28
ST JOSEPH      CLOUDY    33  30  88 W12       30.10R WCI  24
CHILLICOTHE      N/A     38  33  82 W12G17    30.07R
KIRKSVILLE     CLOUDY    40  39  97 W15G22    30.00R FOG

$$
MOZ066>068-077>081-088>096-101>105-271100-
...SOUTHWEST MISSOURI...

CITY           SKY/WX    TMP DP  RH WIND       PRES   REMARKS
SPRINGFIELD    CLOUDY    43  41  93 NW8       30.06R FOG
JOPLIN         CLOUDY    38  35  89 MISG      30.12R

$$
MOZ032>034-039>042-045>050-055>058-069>072-271100-
...CENTRAL MISSOURI...

CITY           SKY/WX    TMP DP  RH WIND       PRES   REMARKS
COLUMBIA       LGT RAIN  48  46  93 W25G32    30.04R
JEFFERSON CITY CLOUDY    51  48  89 SW3       30.03R
ROLLA          CLOUDY    48  47  96 S8        30.03R FOG
SEDALIA        CLOUDY    42  37  82 W14       30.07R
WHITEMAN AFB   CLOUDY    38  34  87 NW14G26   30.06R WCI  30
WARRENSBURG    CLOUDY    36  34  93 W10G20    30.08R WCI  28
OSAGE BEACH    CLOUDY    52  46  82 SW8       30.03S

$$
MOZ051-052-059>065-271100-
...EAST CENTRAL MISSOURI...

CITY           SKY/WX    TMP DP  RH WIND       PRES   REMARKS
ST LOUIS INTL  CLOUDY    50  46  86 S9        30.05S
SPIRIT OF STL  CLOUDY    49  46  90 CALM      30.04R
ST CHARLES     CLOUDY    48  46  93 S9        30.04S

$$
MOZ072>076-082>087-097>100-106>115-271100-
...SOUTH CENTRAL AND SOUTHEAST MISSOURI...

CITY           SKY/WX    TMP DP  RH WIND       PRES   REMARKS
CAPE GIRARDEAU CLOUDY    46  45  96 SE3       30.13F FOG
POPLAR BLUFF   CLOUDY    46  44  93 SE5       30.10F FOG
WEST PLAINS    FOG       48  46  93 S8        30.07S VSB 3/4

$$


USA.gov is the U.S. government's official web portal to all federal, state and local government web resources and services.